Regional Weather Roundup
Issued by NWS

Home | Current Version | Previous Version | Text Only | Print | Product List | Glossary On
Versions: 1 2 3 4 5 6 7 8 9 10 11 12 13 14 15 16 17 18 19 20 21 22 23 24 25 26 27 28 29 30 31 32 33 34 35 36 37 38 39 40 41 42 43 44 45 46 47 48 49 50
000
ASUS45 KABQ 011210
RWRNM
WEATHER ROUNDUP FOR NEW MEXICO
NATIONAL WEATHER SERVICE ALBUQUERQUE NM
600 AM MDT FRI AUG 01 2014

NOTE: "FAIR" MEANS FEW OR NO CLOUDS BELOW 12,000 FEET AGL WITH NO
       SIGNIFICANT WEATHER OR OBSTRUCTIONS TO VISION.

      THIS PRODUCT IS RELEASED AS TWO VERSIONS.  ONE VERSION NEAR
      THE TOP OF THE HOUR CONTAINING PRELIMINARY DATA FROM ALBUQUERQUE
      AND OTHER STATIONS.  A FINAL VERSION WITH ADDITIONAL DATA IS
      ISSUED ABOUT 10 MINUTES AFTER THE HOUR.

NMZ501-503-504-510>518-011300-
NORTHWEST PLATEAU/NORTHCENTRAL MOUNTAINS

CITY           SKY/WX    TMP DP  RH WIND       PRES   REMARKS
FARMINGTON     CLEAR     64  53  67 E6        30.23R
6HR MIN TEMP:  64; 6HR MAX TEMP:  70; 6HR PCP: TRACE;

LOS ALAMOS     PTCLDY    55  51  89 SW6       30.38S
SANTA FE       PTCLDY    56  51  84 SE3       30.33R
6HR MIN TEMP:  56; 6HR MAX TEMP:  59;

TAOS           MOCLDY    52  46  82 E6        30.39S
ANGEL FIRE     CLOUDY    49  47  94 E5        30.46S

$$
NMZ402-403-502-505>509-011300-
WESTCENTRAL MOUNTAINS/SOUTHWEST MOUNTAINS

CITY           SKY/WX    TMP DP  RH WIND       PRES   REMARKS
GALLUP         MOCLDY    57  55  93 S3        30.30R
6HR MIN TEMP:  57; 6HR MAX TEMP:  61;

SILVER CITY    CLOUDY    63  63 100 S6        30.29S

$$
NMZ407-409-411-412-011300-
SOUTHERN DESERTS

CITY           SKY/WX    TMP DP  RH WIND       PRES   REMARKS
LORDSBURG      DRIZZLE   68  61  77 S15       30.21R
DEMING         LGT RAIN  65  63  93 E6        30.22R
6HR MIN TEMP:  65; 6HR MAX TEMP:  67; 6HR PCP:  0.07;

LAS CRUCES     CLOUDY    64  63  97 S3        30.22R
HOLLOMAN AFB   MOCLDY    64  64 100 NW6       30.19R
ALAMOGORDO     LGT RAIN  64  64 100 N5        30.21R
T OR C         MOCLDY    64  60  87 W3        30.23S
6HR MIN TEMP:  63; 6HR MAX TEMP:  64;


$$
NMZ519>523-011300-
CENTRAL VALLEYS/CENTRAL HIGHLANDS

CITY           SKY/WX    TMP DP  RH WIND       PRES   REMARKS
ALBUQUERQUE    PTCLDY    64  54  69 N8        30.28R
6HR MIN TEMP:  63; 6HR MAX TEMP:  68;

DOUBLE EAGLE   PTCLDY    57  54  88 N7        30.31R
MORIARTY ARPT  CLOUDY    58  55  89 SE3       30.34S
6HR MIN TEMP:  56; 6HR MAX TEMP:  58;

CLINES CORNERS CLOUDY    56  54  93 E6        30.36R
6HR MIN TEMP:  55; 6HR MAX TEMP:  56;

BELEN          FAIR      60  58  92 NW6       30.27R
6HR MIN TEMP:  60; 6HR MAX TEMP:  64;

SOCORRO        FAIR      62  60  93 CALM      30.24S
6HR MIN TEMP:  62; 6HR MAX TEMP:  66;


$$
NMZ524>526-539-540-011300-
SOUTHCENTRAL MOUNTAINS

CITY           SKY/WX    TMP DP  RH WIND       PRES   REMARKS
RUIDOSO        LGT RAIN  55  55 100 S6        30.37S

$$
NMZ527>531-011300-
NORTHEAST HIGHLANDS/NORTHEAST PLAINS

CITY           SKY/WX    TMP DP  RH WIND       PRES   REMARKS
LAS VEGAS      CLOUDY    53  50  89 CALM      30.37S
6HR MIN TEMP:  52; 6HR MAX TEMP:  54;

RATON          CLOUDY    57  55  93 NE6       30.33R
6HR MIN TEMP:  57; 6HR MAX TEMP:  60; 6HR PCP:  0.04;

CLAYTON        CLOUDY    64  54  69 SW5       30.27R
6HR MIN TEMP:  63; 6HR MAX TEMP:  65; 6HR PCP: TRACE;


$$
NMZ532>537-011300-
EASTCENTRAL PLAINS

CITY           SKY/WX    TMP DP  RH WIND       PRES   REMARKS
TUCUMCARI      CLOUDY    68  59  73 SW3       30.22R
6HR MIN TEMP:  67; 6HR MAX TEMP:  72; 6HR PCP: TRACE;

CANNON AFB     CLOUDY    64  56  76 CALM      30.24R
6HR MIN TEMP:  63; 6HR MAX TEMP:  67;

CLOVIS AIRPORT NOT AVBL

$$
NMZ028-029-538-011300-
SOUTHEAST PLAINS

CITY           SKY/WX    TMP DP  RH WIND       PRES   REMARKS
ROSWELL        CLOUDY    68  64  87 NE6       30.18R
6HR MIN TEMP:  66; 6HR MAX TEMP:  74; 6HR PCP:  0.29;

ARTESIA        CLOUDY    66  66 100 NE5       30.19R
CARLSBAD       CLOUDY    70  64  81 NW7       30.16R
6HR MIN TEMP:  70; 6HR MAX TEMP:  75;

HOBBS          MOCLDY    64  57  77 E5        30.20


$$


USA.gov is the U.S. government's official web portal to all federal, state and local government web resources and services.